Location: Newark
(43.0000°N, 1.6781°W)
Time: 23:24:52
(UTC+00:00)

Vanguard 1 Rocket - Pass Details

Date: 25 April 2021
Orbit: 652 x 4224 km, 34.3° (Epoch: 10 May)

Event Time Altitude Azimuth Distance (km) Brightness Sun altitude
Rises 11:24:12 0° 231° (SW) 5,644 11.6 59.1°
Reaches altitude 10° 11:29:11 10° 222° (SW) 4,008 11.1 59.4°
Maximum altitude 11:36:49 28° 168° (SSE) 2,020 10.3 59.8°
Drops below altitude 10° 11:41:43 10° 111° (ESE) 2,508 10.0 59.9°
Sets 11:44:05 0° 98° (E) 3,233 10.4 60.0°
